Location: Bienso
(13.2696°N, 4.9750°W)
Time: 02:00:42
(UTC+00:00)

Daily predictions for brighter satellites

Satellite Brightness Start Highest point End
(mag) Time Altitude Azimuth Time Altitude Azimuth Time Altitude Azimuth
ADEOS Rocket 4.3 03:53:47 10° SSE 03:58:41 43° SSE 03:58:41 43° SSE
Milstar 3 4.3 04:13:11 60° WSW 04:15:28 66° SSW 04:37:51 10° SE
Ariane H10+ 3.5 04:21:58 39° SSE 04:22:10 40° SSE 04:36:31 10° E
Intelsat 5-3 Rocket 3.9 04:27:31 77° S 04:27:50 79° SSE 04:42:31 10° ENE
SJ 16-02 3.4 04:29:23 26° ESE 04:29:23 26° ESE 04:31:51 10° SE
ATLAS 3B CENTAUR R/B 3.1 04:30:16 76° W 04:31:05 84° SSW 04:46:20 10° ESE
Atlas Centaur 2 4.4 04:34:15 20° N 04:34:15 20° N 04:38:50 10° NE
ATLAS 2A CENTAUR R/B 4.3 04:35:10 23° NNE 04:35:20 23° NNE 04:42:48 10° E
NOSS 3-2 (A) 4.3 04:37:55 33° NE 04:37:55 33° NE 04:40:56 10° NNE
Cosmos 2208 Rocket 4.4 04:35:36 10° S 04:41:40 60° ENE 04:46:22 10° NNE
CZ-3A R/B 4.0 04:36:57 49° NW 04:41:33 73° NNE 04:51:35 10° E
ATLAS 2A CENTAUR R/B 3.0 04:44:16 40° S 04:44:16 40° S 04:53:08 10° SE
NOSS 3-2 (C) 4.0 04:42:40 10° S 04:47:43 46° ESE 04:52:57 10° NE
H-2A R/B 3.4 04:46:55 10° SE 04:51:01 39° ENE 04:52:41 28° NNE
BREEZE-M DEB (TANK) 4.2 04:51:15 50° N 04:52:28 63° NE 05:06:15 10° SE
USA 267 4.5 04:47:07 10° ESE 04:52:52 34° NE 04:57:11 16° N
Landsat 5 4.1 04:48:43 10° SSE 04:52:28 58° SE 04:52:28 58° SE
Cosmos 1891 Rocket 4.3 04:48:00 10° S 04:54:17 79° W 05:00:25 10° N
Cosmos 1464 Rocket 3.8 04:52:48 10° S 04:58:57 80° W 05:05:03 10° N
Cosmos 1908 4.5 04:57:48 10° SSE 05:01:22 39° E 05:04:55 10° NNE
Delta 2 Rocket 4.1 05:01:46 61° SW 05:01:59 62° SW 05:07:37 10° SE
CENTAUR R/B 2.2 04:56:56 10° SSW 05:02:05 72° ESE 05:07:50 10° NNE
SJ-12 4.1 05:02:21 41° NNE 05:03:39 69° ESE 05:07:43 10° S
Cosmos 1072 Rocket 4.4 04:59:35 10° SSW 05:05:37 61° W 05:11:45 10° N
Meteor 1-16 Rocket 4.3 05:07:10 10° S 05:12:58 82° E 05:18:53 10° N
ERBS 3.0 05:15:52 47° NE 05:15:52 47° NE 05:18:22 10° NE
CZ-4B R/B 3.2 05:13:36 10° NNE 05:17:20 61° E 05:21:17 10° S
ASC 2 Rocket 3.1 05:22:05 52° NW 05:22:34 55° NNW 05:26:32 10° ENE
Okean 1-7 Rocket 4.3 05:19:11 10° N 05:23:33 54° E 05:27:52 10° SSE
USA 276 2.2 05:24:00 66° NE 05:24:00 66° NE 05:27:04 10° SE
Cosmos 1844 4.4 05:25:18 33° W 05:25:28 33° WSW 05:30:33 10° SSW
Elektron 3 4.0 05:24:41 45° NNW 05:25:46 86° WSW 05:28:46 10° SSE
USA 238 DEB 3.8 05:23:09 10° SW 05:29:15 44° WNW 05:35:28 10° N
USA 238 3.8 05:23:15 10° SW 05:29:21 45° WNW 05:35:35 10° N
Cosmos 1953 4.1 05:25:57 10° SSW 05:27:14 19° SW 05:27:14 19° SW
deb Chang Zheng 4 3.4 05:26:06 10° N 05:30:16 65° WNW 05:34:27 10° SSW
Delta 198 3.9 05:31:08 34° WSW 05:31:59 39° SSW 05:35:29 10° SE
Cosmos 1844 Rocket 4.1 05:33:43 19° WSW 05:33:43 19° WSW 05:36:34 10° SSW
SL-16 R/B 2.2 05:30:44 10° SSW 05:36:15 55° WNW 05:41:45 10° N
ARIANE 5 R/B 3.2 05:34:32 17° WSW 05:37:02 26° SSW 05:39:11 10° SE
ARIANE 5 R/B 4.4 05:34:22 10° SSW 05:37:37 22° SSE 05:47:07 10° ESE
Cosmos 2034 Rocket 4.2 05:32:54 10° SSW 05:39:00 50° W 05:45:08 10° N
OAO 3 Rocket 3.7 05:37:46 29° W 05:39:31 42° SW 05:43:56 10° SE
YAOGAN 6 3.4 05:39:38 10° NNE 05:43:13 53° E 05:46:48 10° S
CZ-3C R/B 1.5 05:48:08 23° NW 05:49:00 27° NNW 05:50:56 10° NE
MOS 1 Rocket 4.5 05:44:00 10° SSE 05:49:01 48° ENE 05:53:44 10° N
Cosmos 1315 Rocket 3.8 05:46:51 10° S 05:50:37 47° E 05:54:23 10° NNE
Cosmos 1634 Rocket 4.1 05:45:16 10° S 05:51:25 80° E 05:57:33 10° N
Cosmos 2278 Rocket 2.5 05:48:03 10° N 05:53:41 69° ENE 05:59:17 10° SSE
Cosmos 1898 Rocket 3.5 05:48:44 10° NNW 05:53:47 57° WSW 05:58:51 10° S
Nadezhda 4 Rocket 4.0 05:49:11 10° N 05:55:18 89° WSW 06:01:27 10° S
ERS-2 3.2 05:55:09 10° SSE 05:58:40 47° ENE 06:02:09 10° N
Okean O Rocket 4.2 05:57:27 10° NE 06:01:01 25° E 06:04:35 10° SSE
COSMO-SKYMED 1 2.5 05:59:01 10° S 06:03:20 76° WSW 06:07:39 10° NNW
H-2A R/B 3.3 06:01:00 10° NNW 06:04:24 34° WNW 06:07:52 10° SW
GPS 2-18 Rocket1 4.3 06:02:55 15° WNW 06:05:20 27° N 06:08:39 10° NE
Cosmos 1703 3.4 06:02:40 10° N 06:06:35 78° E 06:10:30 10° S
Cosmos 1300 2.6 06:05:05 10° S 06:08:51 74° W 06:12:38 10° N
SL-19 R/B 3.8 06:09:20 10° NNE 06:12:28 74° ESE 06:15:20 10° S
ASTRO F (AKARI) 4.4 06:11:56 10° N 06:15:30 84° WNW 06:18:54 10° SSW
MOS 1-B 4.4 06:10:58 10° NNE 06:16:45 87° ESE 06:22:31 10° SSW
CZ-4B R/B 2.4 06:15:39 10° SSW 06:18:34 28° W 06:21:31 10° NW
Cosmos 2228 3.0 06:16:25 10° SSW 06:20:38 62° W 06:24:48 10° N
Cosmos 1937 Rocket 3.9 06:17:14 10° NNW 06:22:05 40° W 06:26:53 10° S
PAYLOAD B 4.3 06:18:04 10° N 06:23:40 85° WNW 06:29:16 10° SSW
Atlas Centaur 2 4.4 06:18:16 10° NW 06:24:28 25° NNE 06:31:07 10° ENE
